Moab, UT

5:25 AM MST on November 13, 2019 (GMT -0700)
Canyonlands

Weather History for KCNY - May, 2019

Change the Weather History Date:

Saturday, May 25, 2019

  Actual Average Record
Temperature  
Mean Temperature 60 °F 66 °F  
Max Temperature 76 °F 82 °F 96 °F (1958)
Min Temperature 43 °F 49 °F 37 °F (2007)
Degree Days  
Heating Degree Days 5 2  
Month to date heating degree days 210 123  
Since 1 July heating degree days 5780 5548  
Cooling Degree Days 0 3  
Month to date cooling degree days 12 36  
Year to date cooling degree days 14 39  
Growing Degree Days 9 (Base 50)    
Moisture  
Dew Point 32 °F    
Average Humidity 53    
Maximum Humidity 96    
Minimum Humidity 10    
Precipitation  
Precipitation 0.00 in 0.02 in 0.31 in (1965)
Month to date precipitation 0.94 0.49  
Year to date precipitation 5.93 3.11  
Sea Level Pressure  
Sea Level Pressure 29.81 in    
Wind  
Wind Speed 7 mph (SW)    
Max Wind Speed 26 mph    
Max Gust Speed 35 mph    
Visibility 10 miles    
Events      
T = Trace of Precipitation, MM = Missing Value Source: NWS Daily Summary

Daily Weather History Graph

Daily Weather History Graph

Search for Another Location

Airport or City:

Astronomy

May. 25, 2019 Rise Set
Actual Time 5:59 AM MDT 8:32 PM MDT
Civil Twilight 5:28 AM MDT 9:03 PM MDT
Nautical Twilight 4:50 AM MDT 9:41 PM MDT
Astronomical Twilight 4:07 AM MDT 10:24 PM MDT
Moon 1:36 AM MDT (5/25) 12:01 PM MDT (5/25)
Length of Visible Light 15h 34m
Length of Day
14h 33m
Waning Gibbous, 59% of the Moon is Illuminated
May 25
Waning Gibbous
May 26
Last Quarter
Jun 3
New
Jun 10
First Quarter
Jun 17
Full

Hourly Weather History & Observations

Time (MDT) Temp. Windchill Dew Point Humidity Pressure Visibility Wind Dir Wind Speed Gust Speed Precip Events Conditions
12:53 AM 46.9 °F - 45.0 °F 93% 29.88 in 10.0 mi Calm Calm - N/A   Clear
1:53 AM 46.9 °F - 44.1 °F 90% 29.87 in 10.0 mi SSW 4.6 mph - N/A   Clear
2:53 AM 48.9 °F - 42.1 °F 77% 29.86 in 10.0 mi Calm Calm - N/A   Partly Cloudy
3:53 AM 45.0 °F 43.5 °F 42.1 °F 90% 29.87 in 10.0 mi WSW 3.5 mph - N/A   Clear
4:53 AM 43.0 °F 41.3 °F 41.0 °F 93% 29.87 in 10.0 mi West 3.5 mph - N/A   Clear
5:53 AM 44.1 °F - 41.0 °F 89% 29.87 in 10.0 mi Calm Calm - N/A   Clear
6:53 AM 46.9 °F - 42.1 °F 83% 29.88 in 10.0 mi SE 6.9 mph - N/A   Clear
7:53 AM 53.1 °F - 41.0 °F 64% 29.87 in 10.0 mi SE 5.8 mph - N/A   Clear
8:53 AM 57.9 °F - 39.0 °F 49% 29.87 in 10.0 mi East 6.9 mph - N/A   Clear
9:53 AM 60.1 °F - 37.9 °F 44% 29.87 in 10.0 mi East 5.8 mph - N/A   Clear
10:53 AM 62.1 °F - 37.0 °F 39% 29.87 in 10.0 mi North - - N/A   Clear
11:53 AM 66.0 °F - 36.0 °F 33% 29.85 in 10.0 mi South 5.8 mph - N/A   Clear
12:53 PM 70.0 °F - 30.9 °F 24% 29.82 in 10.0 mi Variable 6.9 mph - N/A   Clear
1:53 PM 72.0 °F - 28.0 °F 20% 29.79 in 10.0 mi SW 12.7 mph 19.6 mph N/A   Clear
2:53 PM 73.9 °F - 19.9 °F 13% 29.77 in 10.0 mi SW 19.6 mph 31.1 mph N/A   Partly Cloudy
3:53 PM 75.0 °F - 15.1 °F 10% 29.77 in 10.0 mi SSW 18.4 mph 26.5 mph N/A   Clear
4:53 PM 73.9 °F - 14.0 °F 10% 29.77 in 10.0 mi SSW 12.7 mph 27.6 mph N/A   Clear
5:53 PM 73.9 °F - 17.1 °F 12% 29.75 in 10.0 mi SW 12.7 mph 26.5 mph N/A   Clear
6:53 PM 73.0 °F - 17.1 °F 12% 29.74 in 10.0 mi West 13.8 mph 19.6 mph N/A   Clear
7:53 PM 71.1 °F - 23.0 °F 16% 29.73 in 10.0 mi West 5.8 mph - N/A   Clear
8:53 PM 63.0 °F - 27.0 °F 26% 29.73 in 10.0 mi West 5.8 mph - N/A   Clear
9:53 PM 61.0 °F - 28.0 °F 29% 29.74 in 10.0 mi Calm Calm - N/A   Clear
10:53 PM 52.0 °F - 37.9 °F 59% 29.77 in 10.0 mi WSW 4.6 mph - N/A   Clear
11:53 PM 53.1 °F - 33.1 °F 47% 29.74 in 10.0 mi Calm Calm - N/A   Clear